ECMWFFLT1_850_temp_132.txt.gz
Temp
22 22 23 23 23 23 23 23 23 22 22 22 22 21 21 21 21 20 20 20 20 20 20 21 21 21 21 21 21 20 20 20 20 20 20 20 20 20 20 20 20 20 20 20 20 20 20 20 20 20 20 20 20 20 20 20 20 20 20 20 20 20 20
22 22 23 23 23 23 23 23 23 23 22 22 22 22 21 21 21 21 21 21 21 21 21 21 21 22 22 21 21 20 20 20 20 20 20 20 20 20 20 20 20 20 20 20 20 20 20 20 20 20 20 20 20 20 20 20 20 20 20 20 20 20 20
22 23 23 24 23 23 23 23 23 23 23 22 22 22 22 22 22 21 21 21 21 21 21 21 21 22 22 21 21 21 20 20 21 21 21 21 21 21 20 20 21 21 21 21 20 20 20 20 20 20 20 20 20 20 20 20 20 20 20 20 21 21 21
22 23 23 24 23 23 23 22 22 23 23 23 23 22 22 22 22 22 22 22 22 21 21 22 22 22 22 22 21 21 21 21 21 21 21 21 21 21 21 21 21 21 21 20 20 20 20 20 20 20 20 20 20 20 20 20 20 20 20 21 21 21 21
23 22 23 23 23 23 23 23 22 22 23 23 23 22 22 22 22 22 22 22 22 22 22 22 22 22 22 22 21 21 21 21 21 21 21 21 21 21 21 21 21 21 21 21 20 20 20 20 20 20 20 20 20 20 20 20 20 20 20 20 20 20 20
23 23 22 22 23 23 23 23 22 22 23 23 23 23 22 22 22 22 22 22 22 22 22 22 22 22 22 22 21 21 21 21 21 21 21 21 21 21 21 21 21 21 21 21 20 20 20 20 20 20 20 20 20 20 20 20 20 20 20 20 20 20 20
22 23 23 22 22 23 23 23 23 22 23 23 23 23 23 22 22 22 22 22 22 22 22 22 22 22 22 22 21 21 21 21 21 21 21 21 21 21 21 21 21 21 21 21 21 20 20 20 20 20 20 20 20 20 20 20 20 20 20 20 20 20 20
21 22 22 22 22 22 22 23 23 23 22 22 22 23 23 23 23 23 22 22 23 23 22 22 22 22 22 22 21 21 21 21 21 21 21 21 21 21 21 21 21 21 21 20 20 20 20 20 20 20 20 20 20 20 20 20 20 20 20 20 20 20 19
21 21 22 21 21 21 21 22 22 23 23 22 22 22 22 23 23 23 23 23 23 23 22 22 22 22 22 22 21 21 21 21 21 21 21 21 21 21 21 21 20 20 20 20 20 20 20 20 20 20 20 20 20 20 20 20 20 20 20 20 20 19 19
21 21 21 21 19 19 20 20 21 22 22 22 22 22 22 23 23 23 23 23 23 23 23 22 22 22 22 22 22 21 21 21 21 21 21 21 21 21 21 20 20 20 20 20 20 20 20 20 20 20 20 20 20 19 19 19 19 19 19 20 20 19 19
21 21 21 21 19 18 18 19 20 21 22 22 22 22 22 22 23 23 23 23 23 23 23 22 22 22 22 22 22 22 21 21 21 21 21 21 21 21 20 20 20 20 20 20 20 20 20 20 20 20 19 19 19 19 20 20 19 19 19 19 20 19 19
20 21 21 21 20 19 17 18 19 19 20 22 22 22 22 22 23 23 23 23 23 23 23 22 22 22 22 21 22 21 21 21 21 21 20 20 21 21 21 20 20 20 20 20 21 20 20 20 20 20 20 20 20 20 21 21 21 20 20 20 20 20 19
20 21 21 22 21 20 19 19 18 17 18 20 21 22 22 22 22 23 23 23 23 23 23 22 22 22 21 21 21 21 21 21 21 20 20 20 20 21 21 21 21 21 21 21 21 21 20 20 20 20 20 21 21 20 21 21 21 21 21 20 20 20 19
20 20 21 21 21 20 20 20 20 19 18 19 20 21 22 22 22 22 22 22 22 22 22 22 22 22 21 21 21 20 20 21 21 20 20 20 20 20 21 21 21 21 21 21 21 21 21 21 21 20 20 20 20 20 20 20 20 20 20 20 20 20 19
19 19 19 19 20 20 19 18 19 20 19 19 19 19 21 22 22 22 22 22 22 22 22 22 22 22 21 21 20 20 21 21 21 21 20 20 21 21 21 21 21 21 21 21 21 21 21 21 21 21 20 20 20 20 20 20 20 20 20 20 20 20 19
18 18 18 18 19 19 19 18 18 18 19 20 19 18 19 21 22 22 22 22 22 21 21 21 21 21 21 21 21 21 21 21 21 21 21 20 21 21 21 21 21 21 21 21 21 21 21 21 21 21 21 21 21 20 20 20 20 20 20 20 20 20 20
17 17 17 18 19 19 19 18 18 18 18 19 20 19 19 19 21 22 22 22 22 21 21 21 21 21 21 21 21 21 21 21 21 21 21 21 21 21 21 21 21 21 21 21 21 21 21 21 21 21 21 21 21 21 21 20 20 20 20 20 19 19 20
16 16 16 17 18 19 19 18 18 18 19 19 20 20 20 19 20 21 22 22 22 21 21 21 21 21 21 21 21 21 21 21 21 21 21 21 21 21 21 21 21 21 21 21 21 21 21 21 21 21 21 21 21 21 21 21 20 20 20 20 20 19 19
16 16 16 16 17 18 18 18 18 18 18 18 18 19 20 20 20 20 21 22 21 21 21 21 21 21 21 21 21 22 21 21 21 21 21 21 21 21 21 21 21 21 21 21 21 21 21 21 21 21 21 21 21 21 20 20 21 20 20 20 20 20 19
16 16 16 16 16 16 17 17 18 18 17 17 17 18 19 19 19 20 20 21 21 21 21 21 21 21 21 22 21 22 22 21 21 21 21 21 21 21 21 21 21 21 21 21 21 21 21 21 21 21 20 20 20 20 20 20 20 20 20 20 20 19 19
15 15 15 15 16 16 16 16 17 18 18 17 17 17 18 18 19 19 19 20 21 21 21 21 21 21 21 21 21 21 22 21 21 21 21 21 21 21 21 21 21 21 21 21 21 21 21 20 20 20 20 20 20 20 20 20 20 20 20 20 20 19 19
15 15 15 15 15 15 15 16 17 18 18 18 18 17 17 18 18 18 18 19 20 21 20 20 21 21 21 21 21 21 22 22 21 21 21 21 21 21 21 20 21 20 20 20 20 20 20 20 20 20 20 20 20 20 20 20 20 20 20 20 20 19 19
16 15 15 15 15 15 15 15 15 17 18 18 19 18 18 18 18 18 18 18 18 19 20 20 20 21 21 21 21 21 21 21 21 21 21 21 21 21 21 21 20 20 20 20 20 19 19 19 19 19 19 19 19 19 19 19 19 19 19 20 19 19 18
15 15 15 15 15 15 15 15 15 17 17 18 18 18 17 17 17 18 18 18 18 18 18 19 20 20 20 21 21 21 21 21 21 21 21 21 21 21 21 21 20 20 19 19 19 19 19 19 19 18 18 18 18 18 18 18 19 19 19 19 19 18 18
15 14 14 14 14 14 15 15 16 17 17 17 17 18 18 17 17 17 18 18 18 18 18 18 19 19 20 20 21 21 21 21 21 21 20 20 20 20 20 20 20 19 19 18 18 18 19 18 18 18 18 18 18 18 18 18 18 18 18 18 18 18 17
14 14 14 14 14 14 14 15 16 17 17 17 18 17 17 18 18 17 17 18 17 17 18 18 19 19 19 20 21 21 21 21 21 20 20 19 19 19 19 19 18 18 19 19 18 18 18 18 17 17 17 17 17 17 17 16 16 17 17 17 17 17 16
14 14 14 14 14 14 14 14 16 17 17 17 17 17 17 17 17 17 17 18 17 17 17 18 18 18 18 19 20 20 20 20 20 20 19 19 19 18 18 18 18 18 19 19 18 18 18 17 17 16 14 14 15 16 15 14 14 15 15 15 16 16 15
14 14 13 14 14 13 14 15 16 16 16 16 16 16 16 16 16 16 17 17 17 17 17 17 18 18 18 19 19 20 20 20 19 19 19 18 18 18 17 18 18 18 19 18 18 17 17 16 16 15 14 13 15 16 15 14 13 14 14 14 14 15 15
13 13 13 13 13 13 14 15 16 16 15 16 16 16 16 16 16 16 16 16 16 17 17 17 18 18 18 19 19 19 18 18 18 18 18 17 17 17 17 17 17 18 18 18 17 16 16 16 15 15 14 14 14 15 15 15 15 15 15 14 14 15 15
13 13 13 13 13 13 14 14 15 15 15 16 16 16 16 16 16 16 16 16 16 16 17 17 18 18 17 17 17 17 17 17 17 17 17 17 17 17 17 17 17 17 17 16 16 16 15 15 15 15 14 14 13 13 14 15 15 15 15 14 14 15 15
13 13 13 13 13 13 13 14 14 14 15 15 16 15 15 15 16 16 16 16 16 16 16 16 16 16 16 16 16 16 16 16 17 16 16 16 17 17 17 17 17 16 16 16 16 15 15 15 14 14 14 14 13 13 13 14 14 14 14 14 14 15 14
13 13 13 13 13 13 13 13 14 14 15 15 15 15 15 15 15 15 15 15 15 15 15 15 15 16 15 15 15 15 16 16 16 16 16 16 16 17 16 16 17 16 15 15 15 15 15 15 15 14 14 14 14 14 14 14 14 14 14 14 15 15 15
13 13 13 13 13 13 13 13 14 14 14 15 15 15 15 15 14 14 14 15 15 15 15 15 15 15 15 15 15 15 16 16 16 16 16 15 15 16 16 16 16 15 15 15 15 15 15 15 15 15 15 15 15 15 15 14 14 14 14 14 15 15 15
13 13 13 13 13 13 13 14 14 13 14 14 14 15 15 15 14 14 14 14 14 15 15 15 15 15 15 14 15 15 15 15 15 15 15 15 15 15 15 15 15 15 14 15 15 15 15 14 14 14 14 14 14 14 14 14 14 14 15 15 15 15 15
13 13 12 12 13 13 13 13 13 13 13 13 13 14 15 14 14 14 14 14 14 14 15 15 15 14 14 14 14 14 14 14 15 15 15 15 15 15 14 14 14 14 14 14 14 15 15 15 14 14 14 14 14 14 14 14 15 15 15 15 15 15 15
13 12 12 13 13 13 13 13 13 13 12 13 13 14 14 14 14 14 14 14 13 14 14 14 14 14 14 14 14 14 14 14 14 14 14 14 14 14 14 14 14 14 14 14 14 14 14 14 14 14 14 14 14 14 15 15 15 15 15 15 15 15 15
12 12 13 13 13 13 13 12 12 12 12 13 13 14 14 14 14 14 14 14 14 14 14 14 14 14 14 14 14 14 14 14 14 14 14 14 14 14 14 14 14 14 14 14 14 14 14 14 14 14 14 14 14 14 14 15 15 15 15 15 15 15 15
13 13 13 13 13 12 12 13 13 13 13 13 13 13 13 13 14 14 14 14 14 14 14 14 15 15 15 15 15 15 15 15 14 14 14 14 14 14 14 14 14 14 14 14 14 14 14 14 14 13 14 14 14 14 14 14 14 14 14 14 14 14 14

ECMWFFLT1_850_temp_138.txt.gz
Temp
20 21 21 22 21 21 22 22 22 22 22 22 21 21 21 21 21 21 21 21 20 20 20 20 20 19 20 20 20 20 20 19 19 19 19 19 19 19 19 19 19 19 20 20 20 20 20 19 19 19 19 19 20 20 20 20 20 20 20 20 19 19 19
20 20 21 21 21 21 21 22 22 22 22 22 22 22 21 21 21 21 21 21 21 20 20 20 20 20 20 20 20 20 20 19 19 19 19 19 19 19 19 19 19 20 20 20 20 20 20 19 19 19 19 19 20 20 20 20 20 20 20 19 19 19 19
20 20 20 21 21 21 21 22 22 22 22 22 22 21 21 22 22 22 22 21 21 21 20 20 20 20 20 21 21 20 20 20 20 20 19 20 20 19 19 19 19 20 20 20 20 20 20 19 19 19 19 19 19 20 20 20 20 20 20 20 19 19 20
20 20 20 20 21 21 21 21 21 22 22 22 22 22 22 22 22 22 22 22 21 21 21 21 21 21 20 21 21 21 20 20 20 20 20 20 20 19 19 19 20 20 20 20 20 20 20 20 20 19 19 20 19 20 20 20 20 20 20 20 20 20 20
20 20 20 20 20 20 21 21 20 20 20 20 20 21 21 22 22 22 22 22 22 21 21 21 21 21 21 21 21 21 21 21 20 20 20 20 20 19 19 20 20 20 20 20 20 20 20 20 20 20 20 20 20 20 20 20 19 19 19 19 20 20 20
20 20 20 20 20 20 21 21 20 20 19 19 19 19 20 20 21 22 22 22 22 21 21 21 21 21 21 21 21 21 21 21 21 20 20 20 20 20 20 20 20 20 20 20 20 20 20 20 20 20 20 20 20 20 20 19 19 19 19 19 19 20 20
20 20 20 20 21 21 21 21 20 20 20 20 21 20 20 19 20 21 22 22 22 21 21 21 21 21 21 21 21 21 21 21 21 21 20 20 20 20 20 20 20 20 20 20 20 20 20 20 20 20 20 20 20 20 20 20 20 20 20 20 20 20 20
20 20 20 20 21 21 21 21 20 20 21 21 21 21 21 20 20 20 21 21 22 22 21 21 21 21 21 21 21 21 21 21 21 21 21 20 20 20 20 20 20 20 20 20 20 20 20 20 20 20 20 20 20 20 20 20 20 20 20 20 20 20 20
20 20 20 20 20 20 20 21 21 21 21 20 21 21 21 21 21 20 20 21 21 21 21 21 21 21 21 21 21 22 22 21 21 21 21 21 21 21 21 21 20 20 20 20 20 20 20 20 20 20 20 20 20 20 20 20 20 20 20 20 20 20 20
19 20 20 19 20 20 20 20 20 21 21 21 21 21 20 20 21 21 20 20 21 21 22 22 21 22 22 21 21 21 21 21 21 21 21 21 21 21 21 21 21 20 20 20 20 20 20 20 20 20 20 20 20 21 21 21 21 20 20 20 20 20 20
19 19 19 19 19 20 20 19 19 20 20 21 21 21 20 20 20 20 21 21 21 21 21 21 21 21 22 22 22 21 21 21 21 21 21 21 21 21 21 21 21 21 21 20 20 20 20 20 20 20 20 20 20 20 20 20 20 20 20 20 20 20 20
19 19 18 18 19 19 19 19 19 19 19 20 20 20 21 21 20 20 21 21 21 21 21 21 21 21 22 22 22 22 21 21 21 21 21 22 21 21 21 21 21 21 21 21 21 20 20 20 20 20 20 20 20 20 20 20 20 20 20 20 20 20 20
18 18 18 18 18 19 19 19 19 18 18 19 19 20 20 20 20 20 20 21 21 21 21 21 21 21 21 22 22 22 22 21 21 21 22 22 22 22 22 22 21 21 21 21 21 21 20 20 20 20 20 20 20 20 20 20 20 20 20 20 20 20 20
17 18 18 18 18 18 19 19 19 19 18 18 18 18 19 19 19 20 20 20 21 21 21 21 21 21 21 21 21 22 22 22 22 22 22 22 22 22 22 21 21 21 21 21 21 21 20 20 20 20 20 20 20 20 20 20 20 20 20 20 20 20 20
17 18 18 18 18 18 18 19 19 19 19 18 18 18 18 19 19 19 19 19 20 20 21 21 21 21 21 21 21 22 22 22 22 22 22 22 22 22 22 21 21 21 21 21 21 21 20 20 19 19 20 20 20 20 20 20 20 20 20 20 20 20 20
18 18 18 18 18 18 18 18 19 19 19 19 19 19 19 19 19 19 19 19 19 20 20 21 21 21 21 21 21 21 22 22 22 22 22 22 22 22 22 21 21 21 21 21 21 21 20 20 20 20 20 20 20 20 20 20 20 20 20 20 20 20 20
18 18 18 18 18 18 18 18 19 19 19 19 19 19 18 18 18 18 18 19 19 19 20 20 20 21 21 22 22 21 21 21 22 22 22 22 22 21 21 21 21 21 21 21 21 21 20 20 20 20 20 20 20 20 20 20 20 20 20 20 20 20 20
17 17 17 17 18 18 18 18 19 19 19 19 19 18 18 18 18 18 18 19 19 19 19 19 20 20 20 21 22 22 21 21 21 22 22 22 21 21 21 21 21 21 21 21 20 20 20 20 20 20 20 20 20 20 20 20 20 20 20 20 20 20 20
16 16 16 16 17 17 17 17 18 18 19 19 18 18 18 17 17 17 18 18 18 19 19 19 19 19 20 20 21 22 22 22 21 21 21 22 21 21 21 20 20 21 21 20 20 20 19 20 20 20 20 20 20 20 20 20 20 20 20 20 20 20 20
15 15 15 15 16 16 16 17 17 18 18 18 18 17 17 17 17 17 17 18 18 18 19 19 19 19 19 20 20 21 22 22 21 21 21 21 21 21 20 20 20 20 20 20 20 20 19 19 20 20 20 20 20 20 20 20 20 20 20 20 20 20 20
15 14 14 15 15 15 15 16 17 18 18 18 18 18 17 17 17 17 17 17 17 18 18 19 19 19 19 19 20 20 21 21 21 21 21 21 21 20 20 20 20 20 20 20 20 20 20 20 20 20 20 20 20 20 20 20 20 20 20 20 20 20 20
14 14 14 14 14 14 14 15 16 17 17 17 17 17 18 17 17 17 17 17 17 17 18 18 19 19 19 19 20 20 20 20 21 21 20 20 19 19 20 20 20 20 20 20 20 20 20 20 20 20 20 20 20 20 20 20 20 20 20 20 20 20 20
14 14 14 14 14 14 14 14 14 15 16 16 17 17 17 17 17 17 17 17 17 17 17 18 18 18 19 19 20 20 20 20 20 21 21 20 19 19 19 19 20 20 20 20 20 20 20 20 20 20 20 20 20 20 20 20 20 20 20 20 20 19 19
14 14 14 13 14 14 14 14 14 15 15 16 17 17 17 17 17 17 18 18 18 17 17 17 18 18 18 19 19 19 20 20 20 20 21 21 21 20 19 19 19 20 20 20 20 20 20 20 20 20 20 20 20 20 20 20 19 19 19 19 19 19 19
13 14 14 14 14 14 15 15 15 15 15 16 17 17 17 17 18 18 19 19 19 18 18 18 18 18 18 18 19 19 19 20 20 19 20 20 20 20 20 19 19 19 19 20 20 20 20 20 20 19 19 19 20 19 19 19 19 19 19 19 19 18 18
13 14 14 14 13 14 14 15 15 15 16 16 17 17 17 17 17 18 19 19 19 19 19 18 18 17 18 18 18 19 19 19 19 19 19 20 20 20 19 19 19 19 19 19 19 19 19 19 19 19 19 19 19 19 19 19 19 19 18 18 18 17 17
14 14 14 13 13 14 14 14 15 15 16 16 16 17 17 17 17 17 18 18 18 18 18 18 17 17 17 17 18 18 18 18 18 19 19 20 20 20 19 19 19 19 19 19 19 19 19 19 19 19 19 18 18 18 18 18 18 18 17 17 16 16 16
14 14 14 14 13 14 14 14 15 15 15 16 16 15 15 15 15 16 16 17 17 17 17 17 17 16 16 16 17 18 18 18 18 18 19 19 19 19 19 19 18 18 18 18 19 19 19 19 19 18 18 18 17 17 17 17 17 16 16 15 15 15 15
14 14 14 14 14 14 14 14 14 14 14 14 14 14 14 14 14 14 15 16 17 16 16 16 16 16 16 16 16 17 17 17 17 17 17 18 18 18 18 18 17 18 18 18 18 19 19 18 18 18 17 17 17 17 17 17 16 16 15 15 14 14 14
14 14 14 14 14 14 14 14 13 13 13 13 13 13 13 14 14 15 15 16 16 16 16 15 15 15 16 16 16 16 16 17 17 17 17 17 18 17 17 17 17 18 18 18 18 18 18 18 17 17 17 17 17 16 16 16 16 15 15 14 13 13 13
14 14 14 13 13 14 13 13 13 13 13 13 13 13 14 14 15 15 15 16 16 16 16 15 15 15 15 16 16 16 16 17 17 17 17 17 17 17 17 18 18 17 17 17 18 18 18 17 16 16 16 16 16 16 16 16 15 15 15 14 14 13 13
14 14 14 13 13 14 13 12 12 13 13 14 14 14 14 14 15 15 15 15 15 16 16 15 15 15 15 16 16 16 16 17 16 16 17 17 17 17 17 18 18 17 17 17 17 17 16 16 16 16 16 16 16 16 16 15 15 15 15 15 15 14 14
14 14 13 13 13 13 13 12 13 13 13 14 14 14 14 14 15 15 15 15 15 15 15 15 15 15 15 16 16 16 16 17 16 16 16 16 16 16 16 16 16 16 16 16 16 16 15 15 16 15 15 15 15 15 15 15 15 15 15 15 15 15 15
14 13 13 13 13 13 13 12 13 13 13 14 14 14 14 14 14 14 14 15 15 15 15 15 15 15 15 15 15 15 15 14 15 15 15 15 15 15 15 15 15 15 15 15 15 16 15 15 15 15 15 15 15 15 15 15 15 15 16 16 16 16 16
14 13 13 13 13 13 12 12 13 13 13 13 13 13 14 14 14 14 14 14 14 14 14 14 14 14 14 14 14 13 13 13 13 14 15 14 15 15 14 14 14 14 13 14 15 15 15 15 14 14 14 15 15 15 15 16 16 16 16 16 15 15 15
13 13 13 13 12 12 12 12 12 12 13 13 13 13 14 14 13 14 14 14 14 14 14 13 13 13 13 14 13 13 14 14 14 14 14 14 13 13 13 13 13 13 13 13 14 14 14 14 14 14 15 15 15 15 15 16 16 15 15 15 14 14 14
13 13 12 12 12 12 12 12 12 12 12 12 13 13 14 13 13 13 13 13 13 14 14 14 13 13 13 14 14 14 14 14 13 13 13 13 12 13 12 12 12 13 13 13 13 13 14 14 14 14 14 14 15 15 15 14 14 14 14 14 14 14 14
13 13 12 12 12 12 12 12 12 12 12 12 13 13 13 13 13 13 13 13 13 14 14 14 14 13 13 13 13 14 14 14 14 14 14 13 13 13 13 14 14 14 13 13 13 13 13 14 13 13 13 14 14 14 14 14 13 13 13 13 13 13 13

ECMWFFLT1_850_temp_141.txt.gz
Temp
20 20 20 21 21 22 22 22 22 22 22 22 23 22 22 21 21 21 21 21 20 20 20 20 20 20 20 19 19 20 20 19 19 19 19 19 19 19 19 19 19 19 19 19 19 19 19 19 19 19 20 20 20 20 20 20 20 20 20 20 20 20 20
20 20 20 20 21 21 22 22 22 22 22 22 22 22 22 22 22 21 21 21 21 20 20 20 20 20 20 20 20 20 20 20 20 19 19 19 19 19 19 19 19 19 19 19 19 19 19 19 19 20 20 20 20 20 20 20 20 20 20 20 20 20 20
20 20 20 20 20 21 21 22 22 22 22 22 21 21 21 22 22 22 21 21 21 21 20 20 20 20 20 20 20 20 20 20 20 20 19 19 19 19 19 19 19 19 19 19 19 19 19 19 19 19 19 20 20 20 20 20 20 20 20 20 19 20 19
20 20 20 19 20 20 21 21 21 21 21 21 21 21 21 21 21 21 21 21 21 21 21 20 20 20 20 20 20 20 20 20 21 20 20 19 19 19 19 19 19 19 19 19 19 19 19 19 19 19 19 19 20 19 19 19 19 19 19 19 19 20 20
20 20 20 19 19 19 20 21 21 21 21 22 22 22 22 22 21 21 21 21 21 21 21 21 20 20 20 20 20 21 21 21 21 21 20 20 20 19 19 19 19 19 19 19 19 19 19 19 19 19 19 19 19 19 19 19 19 19 19 19 19 20 20
20 20 20 19 19 19 20 20 21 21 21 21 22 22 22 22 22 21 21 21 21 21 21 21 20 20 20 20 20 21 21 21 21 21 21 20 20 20 20 20 20 20 19 19 19 19 19 19 19 19 19 19 19 19 19 19 19 19 19 19 20 20 20
20 20 20 20 19 19 19 20 20 21 21 21 21 22 22 21 21 21 21 21 21 21 21 21 20 20 20 20 20 20 21 21 21 21 21 21 21 20 20 20 20 20 20 20 19 19 19 19 19 19 19 19 19 19 19 20 20 20 20 20 20 20 19
20 20 20 20 20 19 19 20 20 20 21 21 21 21 21 21 21 21 21 21 21 21 21 21 20 21 21 20 20 20 20 21 21 22 21 21 21 21 21 20 20 20 20 20 20 20 20 20 19 19 19 20 20 20 20 20 20 20 20 20 19 19 19
19 20 20 20 20 20 19 19 20 20 20 20 21 21 21 21 21 21 21 21 21 21 21 21 21 21 21 21 20 20 20 20 21 21 21 21 21 21 21 21 21 21 21 20 20 20 20 20 20 19 20 20 20 20 20 20 20 20 19 19 19 19 19
19 19 20 20 20 20 19 19 20 20 20 20 20 20 21 21 21 21 21 21 21 21 21 22 21 21 21 21 21 20 20 20 21 21 21 21 21 22 21 21 21 21 21 21 21 20 20 20 20 20 20 20 20 20 20 20 20 19 19 19 20 20 20
19 19 19 19 19 19 19 19 19 19 20 20 20 20 20 20 20 20 20 20 21 21 21 21 21 21 21 21 21 21 20 20 21 21 21 22 22 22 22 22 21 22 21 21 21 21 21 20 20 20 20 20 20 20 20 20 19 19 19 19 20 20 20
18 18 19 19 19 19 19 19 19 19 19 19 20 20 19 19 20 20 20 20 20 20 21 21 21 21 21 21 21 21 21 21 21 21 21 21 22 22 22 22 22 22 22 22 21 21 21 21 21 20 20 20 20 20 20 20 19 19 19 19 19 20 20
17 18 18 19 19 19 19 19 19 19 19 19 19 20 20 19 19 19 19 19 19 19 20 20 20 20 21 21 21 21 21 21 21 21 21 21 21 22 22 22 22 22 22 22 22 21 21 21 21 21 21 21 21 20 20 19 19 19 19 19 19 19 20
18 17 18 19 19 19 18 18 18 18 19 19 19 19 20 19 20 20 19 19 19 19 19 19 19 20 20 21 21 21 21 21 21 21 21 21 21 21 21 21 22 22 22 22 22 21 21 21 21 21 21 21 21 20 20 19 19 19 19 19 19 19 19
18 18 18 18 18 18 18 17 17 17 17 18 18 19 19 19 19 20 20 20 20 19 19 19 19 19 20 20 20 21 21 21 21 21 21 21 21 21 21 21 22 22 22 22 21 21 21 21 21 21 21 21 21 20 20 19 19 19 19 19 19 19 19
19 18 17 17 17 18 17 17 17 17 17 17 17 18 18 19 19 19 19 20 20 19 19 19 19 19 19 20 20 21 21 21 21 21 21 21 21 21 21 21 21 22 22 22 21 21 21 21 21 21 21 21 21 20 20 20 20 20 19 19 19 19 19
18 18 16 16 16 17 17 17 16 16 16 17 17 17 18 18 18 19 19 19 19 19 19 19 19 19 19 19 20 20 20 21 21 21 21 21 21 22 21 21 21 21 22 22 21 21 21 21 21 21 21 21 21 20 20 20 20 20 20 20 19 19 19
18 17 16 15 15 16 16 16 16 16 16 16 17 17 17 17 18 18 18 19 19 19 19 18 18 19 19 19 19 20 20 20 21 21 21 22 22 22 22 21 21 21 21 21 21 21 21 21 21 21 21 21 20 20 20 20 20 20 20 20 19 19 19
17 17 16 16 16 16 16 16 16 16 16 16 16 16 16 16 17 17 17 17 18 18 18 18 18 18 18 19 19 19 19 20 20 21 21 21 22 22 22 21 21 21 21 21 21 21 21 21 21 20 20 20 20 20 20 20 20 20 20 20 20 19 19
16 16 16 16 16 16 15 15 15 15 15 15 15 15 16 16 16 16 16 16 17 17 17 17 18 18 18 18 18 19 19 19 20 20 21 21 21 22 22 22 21 21 21 21 21 21 21 21 20 20 20 20 20 20 20 20 20 20 20 20 20 20 20
15 16 16 16 15 15 15 14 14 14 15 15 15 15 16 16 16 16 16 16 16 16 17 17 17 18 18 18 18 18 19 19 19 20 20 21 21 21 21 21 21 21 21 21 20 20 21 21 20 20 19 19 19 20 20 20 20 20 20 20 20 20 20
15 16 16 15 15 15 14 14 14 14 14 14 15 16 16 16 16 16 16 16 16 16 16 16 17 17 17 18 18 18 19 19 19 19 20 20 20 20 21 21 21 21 21 20 20 20 20 20 20 19 19 19 19 20 20 20 20 20 20 20 20 20 20
16 17 16 15 15 14 14 14 14 14 14 14 15 16 16 16 16 16 16 17 17 17 17 17 17 16 17 17 18 19 19 19 19 19 19 20 20 21 21 21 22 22 21 20 20 19 19 20 19 19 19 19 19 20 20 20 20 20 20 20 20 20 19
16 16 16 15 15 14 14 14 14 14 14 14 15 16 16 16 16 16 17 17 17 17 17 17 17 17 17 17 18 18 19 19 19 19 19 19 20 20 21 21 21 21 21 20 20 19 19 19 19 19 19 19 20 20 20 20 20 20 20 20 20 19 19
15 15 15 15 14 14 13 13 13 14 14 15 15 16 16 17 17 17 17 17 17 17 17 18 18 18 18 18 18 18 18 18 18 18 18 19 20 20 20 20 20 20 20 20 20 20 19 19 19 19 19 20 20 20 20 20 20 20 20 20 19 19 19
14 14 14 14 14 14 13 13 13 14 15 15 16 16 17 17 17 17 17 17 17 17 17 18 18 18 18 18 18 18 18 18 18 18 18 19 19 19 19 19 19 19 20 20 20 20 19 19 19 19 19 20 20 20 20 20 20 20 20 19 19 19 18
14 14 14 14 14 14 14 13 14 14 14 15 16 16 17 17 17 17 18 18 18 18 18 18 17 18 18 18 19 19 18 18 18 17 18 18 18 18 18 18 19 19 19 20 20 20 19 20 20 20 20 20 20 19 19 19 19 19 19 19 18 18 18
14 14 14 14 14 14 13 14 14 14 14 14 15 15 16 16 16 17 17 17 18 17 17 17 17 17 18 18 18 18 18 18 18 18 17 17 17 17 17 17 18 18 18 19 20 19 19 19 20 20 19 19 19 19 19 18 18 18 18 18 17 17 17
14 14 14 14 14 14 14 14 14 14 14 14 14 14 15 15 15 15 15 16 16 16 16 16 17 17 17 17 16 16 16 17 18 17 17 17 17 17 17 17 17 18 18 18 19 19 19 19 19 18 18 18 18 18 18 18 17 17 17 17 17 17 16
14 14 14 14 13 14 13 13 13 13 13 13 13 14 14 14 14 14 15 15 15 15 15 16 16 16 16 16 15 15 15 16 16 17 17 17 17 17 17 17 17 17 17 17 17 18 18 18 17 17 16 17 17 17 17 17 17 17 17 17 16 15 14
14 14 14 13 13 13 13 13 12 13 13 13 14 14 14 14 14 14 14 15 15 15 15 15 15 15 15 15 15 15 16 16 16 16 16 16 17 17 17 17 17 17 17 17 17 17 17 17 16 16 16 16 17 17 16 16 17 17 17 16 14 14 13
14 14 14 13 13 13 13 12 12 13 13 14 14 14 15 15 14 14 14 14 14 14 15 15 15 15 15 15 15 15 16 16 16 16 16 16 17 17 17 17 17 17 17 17 16 17 17 16 16 15 15 15 16 16 16 16 16 16 16 15 13 13 13
14 14 13 13 13 13 12 12 12 13 13 14 14 14 14 14 14 14 14 14 14 14 14 14 15 15 15 15 15 15 16 16 16 16 16 16 16 16 16 16 17 16 16 16 16 16 16 16 15 15 15 15 15 15 15 15 15 15 14 14 13 13 13
13 13 13 13 13 12 12 12 13 13 13 13 14 14 14 13 14 14 14 14 14 14 14 14 14 15 15 15 15 15 15 15 15 16 16 16 16 15 14 14 15 16 15 15 15 15 15 15 15 15 15 15 15 15 14 14 14 14 14 14 13 13 13
13 13 13 13 12 12 12 13 13 13 13 14 14 14 13 13 13 14 14 14 14 13 13 13 14 14 14 14 14 14 15 15 14 14 15 14 14 14 12 11 13 14 14 13 13 14 14 14 14 15 14 14 14 15 15 14 14 14 14 14 14 13 13
13 13 13 12 12 12 12 12 12 12 13 13 14 14 13 13 13 13 14 14 14 13 13 13 13 13 14 14 13 13 13 13 12 12 13 13 13 13 12 10 10 12 13 13 12 13 13 14 14 14 14 14 14 14 15 14 14 14 14 14 14 14 13
13 13 12 12 12 12 12 12 12 12 12 13 14 14 14 14 13 13 14 14 14 13 13 13 13 13 13 13 12 12 12 12 12 12 12 13 13 13 13 11 11 11 12 13 12 12 12 13 14 14 14 14 14 14 14 14 14 14 14 14 14 13 13
13 13 12 12 12 12 11 12 12 12 12 13 13 14 14 13 13 13 13 13 13 13 13 13 13 12 12 12 12 12 13 13 12 12 13 13 13 13 13 12 12 12 11 12 12 12 12 13 13 13 13 14 14 14 14 14 14 14 14 14 14 14 14

ECMWFFLT1_850_temp_144.txt.gz
Temp
24 24 24 24 23 23 23 23 23 22 22 21 21 21 21 21 21 21 20 20 20 20 20 20 20 19 19 19 20 20 19 19 19 19 19 19 19 19 19 19 19 19 19 19 19 19 19 19 19 19 19 19 20 20 20 20 20 20 20 20 20 20 20
24 24 24 24 23 23 23 23 23 22 22 22 21 21 21 21 21 21 20 20 21 20 20 20 20 20 19 19 19 20 19 19 19 19 19 19 19 19 19 19 19 19 19 19 19 19 19 19 19 19 19 19 19 20 20 20 20 20 20 20 20 20 20
24 23 23 23 23 23 23 23 22 22 22 22 22 21 21 21 21 20 21 21 21 21 20 20 20 20 19 19 19 19 19 19 19 19 19 19 19 19 19 19 19 19 19 19 19 19 19 19 19 19 19 19 19 19 19 19 20 20 20 20 20 20 20
23 23 22 22 22 22 22 22 22 22 22 22 21 21 21 21 21 21 21 21 21 21 20 20 20 20 19 19 19 19 19 19 19 19 19 20 20 20 20 19 19 19 19 19 19 19 19 19 19 19 19 19 19 19 19 19 19 19 20 20 20 19 20
22 22 22 22 22 21 22 22 21 22 22 21 21 21 22 22 21 21 21 21 21 21 20 20 20 20 19 19 19 19 19 19 19 19 19 20 20 20 20 20 20 20 20 20 19 19 19 19 19 19 19 20 20 19 20 20 20 19 20 20 20 19 19
22 22 21 21 21 21 21 21 21 21 21 21 21 21 22 23 22 21 21 21 21 21 21 20 21 20 20 20 20 20 19 19 19 20 20 20 20 20 20 20 20 20 20 20 20 20 19 19 19 19 19 20 20 19 20 20 19 19 19 19 19 19 19
22 22 21 21 21 21 21 21 21 21 20 20 21 21 22 22 21 21 21 20 20 21 21 21 21 21 20 20 20 20 20 20 20 20 20 20 20 20 20 20 20 20 20 20 20 20 20 19 19 19 19 19 20 20 20 19 19 19 19 19 19 19 19
21 21 21 20 20 20 20 21 21 20 20 20 20 21 21 21 21 21 21 21 20 21 21 21 21 21 20 20 20 20 20 20 20 20 20 20 20 20 20 20 20 20 20 20 20 20 20 20 20 19 19 19 19 19 19 19 19 19 19 19 19 19 19
21 20 20 20 20 20 19 20 20 20 20 20 20 20 20 21 21 21 21 21 20 20 21 21 21 20 20 20 20 20 20 20 20 20 20 20 20 21 21 21 21 20 20 20 20 20 20 20 20 20 19 19 19 19 19 19 19 19 19 19 19 19 19
20 20 20 20 19 19 19 19 19 19 19 19 20 20 20 20 20 20 20 20 20 20 20 21 21 20 20 21 21 21 20 20 20 20 20 20 21 21 21 21 21 21 21 21 21 21 20 20 20 19 19 20 20 20 19 19 19 19 19 19 19 19 19
20 20 20 20 19 19 19 19 19 19 19 19 19 19 20 20 20 20 20 20 20 19 20 20 20 20 20 21 21 20 20 20 20 20 20 20 21 21 21 21 22 21 21 21 21 21 21 20 20 19 20 20 20 20 20 20 20 19 19 19 19 20 20
20 20 19 19 19 19 19 19 19 19 19 19 19 18 19 19 19 19 19 19 19 19 19 19 20 19 20 20 20 20 20 20 20 20 20 20 20 21 21 21 22 22 21 21 21 21 21 21 20 20 20 21 21 20 21 21 20 20 20 19 20 20 20
19 19 19 19 19 19 19 19 18 18 18 18 18 18 18 19 19 19 19 19 19 19 19 19 20 20 20 20 20 20 20 20 20 20 21 20 20 20 21 21 21 22 22 21 21 21 21 21 20 20 21 21 21 21 21 21 21 20 20 20 20 20 20
19 19 19 19 18 18 18 19 18 18 18 18 18 18 18 18 18 19 19 19 19 19 19 19 19 19 20 20 20 20 20 20 20 20 20 20 20 20 21 21 21 21 21 21 21 21 21 21 21 20 21 20 21 21 21 21 21 20 20 20 20 20 20
19 19 19 19 18 18 18 18 18 17 17 17 17 18 18 18 18 18 18 18 19 19 19 19 19 19 19 19 20 21 21 21 20 20 20 20 20 20 21 21 21 21 21 21 21 21 21 21 21 21 21 20 20 21 22 21 20 20 20 20 20 20 20
20 19 19 19 18 18 18 18 17 17 17 17 16 17 17 18 18 18 18 18 18 18 19 19 19 19 19 19 19 20 21 21 21 21 20 20 21 21 21 21 21 20 20 20 20 20 21 21 21 21 21 20 20 21 21 21 20 20 21 20 20 20 20
20 19 19 19 18 18 18 18 17 17 17 16 16 16 16 17 17 17 18 18 17 17 17 18 18 19 19 19 19 19 20 21 20 21 21 21 21 21 21 21 21 21 20 20 20 20 21 21 21 21 21 21 20 20 20 20 20 21 21 20 20 20 20
20 19 19 19 18 18 18 18 17 17 17 16 16 16 16 16 16 16 17 17 17 17 17 17 17 18 18 19 19 19 20 20 20 20 20 21 21 21 21 21 21 21 21 21 20 20 21 21 21 21 21 21 20 20 20 20 20 21 21 20 20 20 20
19 19 19 18 18 18 17 17 17 17 16 16 16 16 16 16 16 16 16 16 17 17 17 17 17 17 17 18 18 19 19 20 20 20 20 20 21 21 21 21 21 21 21 21 21 20 20 20 21 21 21 21 20 20 20 20 21 21 21 20 20 20 20
19 19 18 18 18 18 17 17 17 16 16 15 15 15 15 15 15 15 16 16 17 17 17 17 17 17 17 17 18 18 18 19 19 20 20 20 20 21 21 21 21 21 21 21 21 21 21 20 20 20 21 21 21 21 20 20 21 22 21 20 20 20 20
18 18 18 18 18 17 17 16 16 15 15 15 15 15 15 15 15 15 16 17 17 17 17 17 17 17 17 17 17 18 18 18 18 19 20 20 20 20 21 21 21 21 21 21 21 21 21 21 20 20 20 21 21 20 20 21 21 21 21 20 20 20 20
18 17 17 18 17 16 16 16 15 15 15 14 14 14 14 14 14 15 16 17 17 17 17 17 17 17 17 17 17 18 18 19 19 19 19 20 20 20 20 20 21 21 20 20 20 20 21 21 21 20 20 21 21 20 20 21 21 20 20 20 20 20 20
17 16 17 17 16 16 16 15 14 14 14 14 14 14 14 14 14 15 15 16 16 17 17 17 17 17 17 17 17 18 18 19 19 19 19 19 20 20 20 20 20 20 20 20 20 20 20 21 20 20 20 20 20 20 20 20 20 20 20 20 20 20 20
16 16 17 16 16 16 15 15 14 14 14 14 14 14 14 14 14 15 15 15 15 17 17 18 18 17 17 17 17 18 18 18 18 19 19 19 19 19 20 20 20 20 20 20 20 20 20 20 20 20 20 20 20 20 20 20 20 20 20 20 20 20 19
16 16 16 16 16 15 14 14 14 13 14 14 14 14 14 14 14 14 15 15 15 15 16 17 18 17 17 17 17 17 18 18 18 18 19 19 19 19 19 20 20 20 19 19 19 19 19 19 19 20 20 20 20 20 19 19 19 20 20 20 20 20 19
16 16 16 16 16 14 14 14 13 13 14 13 14 14 13 14 14 14 15 15 15 15 15 15 16 16 16 17 17 17 17 17 18 18 18 19 19 19 19 19 19 19 19 19 19 19 18 18 18 19 20 20 19 19 19 19 19 20 20 20 20 19 19
16 16 16 15 15 14 13 13 13 13 13 13 13 13 13 14 14 14 15 15 15 15 15 15 15 16 16 16 17 18 18 17 17 18 18 18 18 19 19 18 19 19 18 18 18 18 18 18 18 19 20 20 19 19 19 19 19 19 19 19 19 18 18
16 16 16 15 14 14 13 13 13 13 13 13 13 13 14 14 14 14 15 15 15 15 15 16 16 16 16 16 16 16 17 18 17 17 18 18 18 18 18 18 18 18 18 18 18 18 18 18 19 19 19 19 19 19 19 19 19 18 18 18 18 18 17
16 16 15 15 15 14 13 13 13 13 13 13 13 14 15 15 15 15 15 15 15 15 16 16 16 16 16 16 16 16 16 17 17 17 17 18 18 18 18 18 18 18 18 18 18 17 17 18 18 18 18 19 19 19 19 18 18 17 17 17 17 17 17
16 15 15 15 15 14 13 13 13 13 13 13 13 14 15 15 15 15 15 15 15 15 15 15 15 16 16 16 16 16 16 16 16 16 17 18 18 17 17 18 18 17 17 17 17 17 17 17 18 18 18 18 18 18 18 17 16 16 16 17 17 17 17
15 15 15 15 14 13 13 12 13 13 13 13 13 14 15 15 15 15 15 15 15 15 15 15 15 15 15 16 16 16 16 16 16 16 16 17 17 17 17 17 17 17 17 17 18 18 17 17 17 18 18 17 17 18 17 17 16 15 16 16 16 16 16
15 14 15 14 14 13 12 13 13 13 13 13 14 14 14 14 14 15 15 15 15 15 15 15 15 15 15 16 16 16 16 16 16 16 16 16 16 16 16 17 17 17 17 17 18 17 17 17 17 17 17 16 16 17 16 16 16 16 15 15 15 15 15
15 14 14 13 13 12 13 13 13 13 13 13 14 13 13 13 14 14 14 14 14 14 14 14 15 15 15 15 15 15 16 16 16 16 16 16 16 16 16 16 16 16 17 17 17 17 17 17 17 17 16 16 16 16 15 15 16 15 15 15 15 15 14
14 14 13 12 12 12 13 13 13 13 13 13 13 13 13 13 14 14 14 14 13 13 13 13 13 14 15 15 15 15 15 16 16 16 16 16 16 16 16 16 16 16 16 16 16 16 16 16 16 16 16 16 15 15 15 15 15 15 15 15 15 14 14
14 14 13 12 12 12 12 12 12 13 12 12 13 13 13 13 13 13 13 13 13 13 13 13 13 13 13 14 14 14 14 15 15 15 15 16 16 16 16 16 16 16 16 15 15 15 16 16 16 16 16 15 15 15 15 15 14 14 14 14 14 14 14
14 13 13 12 12 12 12 12 12 13 13 12 12 12 13 13 13 13 13 12 12 12 12 12 12 12 12 13 13 13 13 13 14 14 14 15 15 15 14 14 14 14 15 14 14 13 14 15 15 14 13 13 14 14 14 14 14 14 14 14 14 14 14
13 13 13 12 12 12 12 12 13 13 12 12 12 12 13 13 13 13 13 13 12 12 12 12 12 12 12 12 12 12 12 12 12 12 13 13 13 13 13 13 12 12 12 13 12 12 12 12 13 12 12 12 13 13 14 14 14 14 14 14 14 14 14
13 14 14 13 12 12 12 12 12 13 12 12 12 12 12 12 12 12 12 12 12 12 12 12 12 11 11 11 11 11 11 11 11 12 12 12 12 12 12 13 12 11 11 12 12 12 12 12 12 12 12 13 13 14 14 14 14 14 14 14 14 14 14